Location: Asheville, NC
(35.6000°N, 82.5500°W)
Time: 21:55:00
(UTC-04:00)

ITAMSAT 1 - Visible Passes

Search period start: 25 April 2018 00:00
Search period end: 05 May 2018 00:00
Orbit: 783 x 797 km, 98.9° (Epoch: 24 April)

Date Brightness Start Highest point End Pass type
(mag) Time Alt. Az. Time Alt. Az. Time Alt. Az.
25 Apr 8.9 05:05:12 10° NNE 05:10:04 40° E 05:14:53 10° SSE visible
26 Apr 9.9 04:36:42 10° NE 04:40:30 20° E 04:44:17 10° SE visible
26 Apr 8.2 06:15:15 10° N 06:20:03 40° WNW 06:24:50 10° SW visible
27 Apr 7.6 05:45:36 10° N 05:50:47 80° WNW 05:55:56 10° SSW visible
28 Apr 8.4 05:16:20 10° NNE 05:21:23 52° E 05:26:24 10° S visible
29 Apr 9.6 04:47:33 10° NE 04:51:52 26° E 04:56:09 10° SSE visible
30 Apr 10.3 04:19:53 10° ENE 04:22:14 13° E 04:24:35 10° ESE visible
30 Apr 7.7 05:56:56 10° N 06:02:03 62° WNW 06:07:07 10° SSW visible
01 May 8.0 05:27:32 10° NNE 05:32:42 68° ESE 05:37:49 10° S visible
02 May 9.2 04:58:33 10° NNE 05:03:13 34° E 05:07:52 10° SSE visible
03 May 10.1 04:30:18 10° NE 04:33:38 17° E 04:36:58 10° SE visible
04 May 7.7 05:38:47 10° NNE 05:43:59 87° ESE 05:49:09 10° SSW visible
